Location: Tel Aviv
(32.0670°N, 34.7670°E)
Time: 05:49:52
(UTC+02:00)

Courier 1B - All Passes

Search period start: 04 November 2024 00:00
Search period end: 14 November 2024 00:00
Orbit: 962 x 1208 km, 28.3° (Epoch: 03 November)

Date Brightness Start Highest point End Pass type
(mag) Time Alt. Az. Time Alt. Az. Time Alt. Az.
04 Nov - 00:48:20 10° SW 00:51:30 13° SSW 00:54:41 10° S night (unlit)
04 Nov - 16:16:43 10° SW 16:22:24 32° SSE 16:28:19 10° E daylight
04 Nov - 18:09:28 10° WSW 18:16:02 59° S 18:23:01 10° E visible
04 Nov - 20:03:09 10° W 20:10:01 64° S 20:17:21 10° ESE visible
04 Nov - 21:57:17 10° W 22:03:58 41° SSW 22:11:03 10° SE night (unlit)
04 Nov - 23:52:59 10° WSW 23:57:40 18° SSW 00:02:29 10° S night (unlit)
05 Nov - 15:23:37 10° SSW 15:28:45 25° SSE 15:34:00 10° ESE daylight
05 Nov - 17:15:52 10° WSW 17:22:14 52° SSE 17:28:57 10° E visible
05 Nov - 19:09:24 10° W 19:16:07 66° S 19:23:18 10° ESE visible
05 Nov - 21:03:22 10° W 21:10:06 48° SSW 21:17:15 10° ESE visible
05 Nov - 22:58:20 10° WSW 23:03:50 23° SSW 23:09:33 10° SSE night (unlit)
06 Nov - 14:30:48 10° SSW 14:35:07 19° SSE 14:39:28 10° ESE daylight
06 Nov - 16:22:20 10° SW 16:28:29 45° SSE 16:34:53 10° E daylight
06 Nov - 18:15:41 10° WSW 18:22:16 65° S 18:29:16 10° E visible
06 Nov - 20:09:32 10° W 20:16:14 54° SSW 20:23:21 10° ESE visible
06 Nov - 22:04:02 10° W 22:10:01 28° SSW 22:16:16 10° SSE night (unlit)
07 Nov - 13:38:32 10° S 13:41:29 13° SSE 13:44:27 10° ESE daylight
07 Nov - 15:28:55 10° SW 15:34:47 37° SSE 15:40:48 10° E daylight
07 Nov - 17:21:59 10° WSW 17:28:26 62° S 17:35:14 10° E visible
07 Nov - 19:15:45 10° W 19:22:22 60° S 19:29:24 10° ESE visible
07 Nov - 21:09:57 10° W 21:16:11 35° SSW 21:22:46 10° SE visible
07 Nov - 23:06:39 10° SW 23:09:47 13° SSW 23:12:59 10° S night (unlit)
08 Nov - 14:35:37 10° SW 14:41:07 30° SSE 14:46:40 10° E daylight
08 Nov - 16:28:20 10° WSW 16:34:40 57° S 16:41:15 10° E daylight
08 Nov - 18:21:59 10° W 18:28:32 63° S 18:35:26 10° ESE visible
08 Nov - 20:16:01 10° W 20:22:22 41° SSW 20:29:06 10° SE visible
08 Nov - 22:11:30 10° WSW 22:15:59 18° SSW 22:20:37 10° S night (unlit)
09 Nov - 13:42:31 10° SSW 13:47:28 23° SSE 13:52:24 10° ESE daylight
09 Nov - 15:34:43 10° WSW 15:40:55 50° SSE 15:47:16 10° E daylight
09 Nov - 17:28:15 10° W 17:34:42 65° S 17:41:28 10° E visible
09 Nov - 19:22:10 10° W 19:28:34 48° SSW 19:35:19 10° ESE visible
09 Nov - 21:16:59 10° WSW 21:22:12 23° SSW 21:27:39 10° SSE visible
10 Nov - 12:49:41 10° SSW 12:53:49 18° SSE 12:57:55 10° ESE daylight
10 Nov - 14:41:10 10° SW 14:47:12 42° SSE 14:53:18 10° E daylight
10 Nov - 16:34:31 10° WSW 16:40:55 64° S 16:47:32 10° E daylight
10 Nov - 18:28:22 10° W 18:34:46 54° S 18:41:29 10° ESE visible
10 Nov - 20:22:47 10° W 20:28:26 28° SSW 20:34:23 10° SSE visible
11 Nov - 11:57:27 10° S 12:00:10 13° SSE 12:02:52 10° SE daylight
11 Nov - 13:47:41 10° SW 13:53:30 35° SSE 13:59:19 10° E daylight
11 Nov - 15:40:48 10° WSW 15:47:08 60° S 15:53:36 10° E daylight
11 Nov - 17:34:35 10° W 17:40:58 59° S 17:47:38 10° ESE visible
11 Nov - 19:28:46 10° W 19:34:41 34° SSW 19:40:54 10° SE visible
11 Nov - 21:25:18 10° SW 21:28:12 13° SSW 21:31:09 10° S visible
12 Nov - 12:54:19 10° SW 12:59:50 28° SSE 13:05:15 10° E daylight
12 Nov - 14:47:05 10° WSW 14:53:23 55° S 14:59:43 10° E daylight
12 Nov - 16:40:49 10° W 16:47:11 63° S 16:53:45 10° ESE daylight
12 Nov - 18:34:50 10° W 18:40:55 41° SSW 18:47:17 10° SE visible
12 Nov - 20:30:13 10° WSW 20:34:27 17° SSW 20:38:48 10° S visible
13 Nov - 12:01:09 10° SSW 12:06:10 22° SSE 12:11:04 10° ESE daylight
13 Nov - 13:53:23 10° WSW 13:59:40 48° SSE 14:05:51 10° E daylight
13 Nov - 15:47:01 10° W 15:53:25 64° S 15:59:53 10° E daylight
13 Nov - 17:41:00 10° W 17:47:11 48° SSW 17:53:36 10° ESE visible
13 Nov - 19:35:45 10° WSW 19:40:43 22° SSW 19:45:53 10° SSE visible
